Location: ?????
(38.3233°N, 23.6105°E)
Time: 20:38:47
(UTC+00:00)

Daily predictions for brighter satellites

Satellite Brightness Start Highest point End
(mag) Time Altitude Azimuth Time Altitude Azimuth Time Altitude Azimuth
Cosmos 1655 Rocket 4.1 15:50:11 10° N 15:56:38 86° E 16:03:02 10° S
Atlas Centaur 2 4.5 15:51:59 10° SSW 15:58:14 23° SSE 16:04:30 10° ESE
Cosmos 44 3.6 15:58:41 10° S 16:02:44 38° ESE 16:07:02 10° NE
Cosmos 1400 Rocket 4.2 16:01:19 10° SE 16:04:16 19° E 16:07:13 10° NE
Cosmos 1726 Rocket 4.1 16:01:46 10° SSE 16:05:42 36° E 16:09:42 10° NNE
Okean-O 3.9 16:02:33 10° ESE 16:05:48 21° ENE 16:09:05 10° NNE
Delta 2 Rocket 4.2 16:03:10 10° WSW 16:08:21 66° S 16:13:57 10° E
SAR-Lupe-4 3.6 16:05:15 10° NNE 16:08:47 59° E 16:12:19 10° S
USA 229 DEB 4.4 16:01:54 10° NW 16:09:17 68° WSW 16:16:57 10° SSE
USA 229 4.4 16:02:01 10° NW 16:09:23 69° WSW 16:17:02 10° SSE
CZ-4B R/B 1.5 16:06:11 10° N 16:09:26 72° WNW 16:12:33 10° SSW
Meteor 2-21 4.5 16:04:17 10° N 16:10:23 60° E 16:16:23 10° SSE
Cosmos 1758 Rocket 3.5 16:06:03 10° N 16:10:26 62° E 16:14:44 10° SSE
Milstar 3 3.9 16:05:30 10° SW 16:11:46 31° SSE 16:17:40 10° ESE
CZ-4B R/B 3.9 16:06:54 10° S 16:12:28 63° WSW 16:18:01 10° NNW
Aureole 3 4.1 16:11:50 10° SE 16:14:36 22° E 16:17:06 10° NE
Cosmos 1331 Rocket 3.9 16:11:35 10° S 16:16:43 72° ESE 16:21:52 10° NNE
Cosmos 2266 Rocket 4.2 16:13:27 10° N 16:19:41 81° W 16:26:00 10° S
Cosmos 1606 Rocket 3.5 16:15:42 10° S 16:19:59 70° E 16:24:22 10° NNE
OAO 3 Rocket 3.5 16:16:03 10° W 16:20:46 59° S 16:25:01 12° ESE
Cosmos 2228 2.9 16:20:22 10° S 16:24:36 85° E 16:28:52 10° N
FALCON 9 DEB 2.9 16:21:42 10° SW 16:24:54 66° SE 16:27:29 15° NE
CZ-2C R/B 4.0 16:19:59 10° SE 16:24:59 31° ENE 16:29:55 10° N
SAR-Lupe-1 4.1 16:22:54 10° NNE 16:26:30 85° WNW 16:30:05 10° SSW
GENESIS II 4.4 16:22:47 10° SSW 16:26:49 81° WNW 16:30:51 10° NNE
SKYMED 2 3.5 16:23:11 10° NNE 16:27:32 72° ESE 16:31:51 10° S
Cosmos 292 Rocket 3.7 16:22:54 10° S 16:27:37 67° ESE 16:32:25 10° NNE
SL-4 R/B 4.2 16:28:12 10° NNW 16:29:34 12° N 16:30:58 10° NNE
FALCON 9 DEB 2.8 16:29:23 10° SW 16:32:34 87° SE 16:34:54 17° NE
Cosmos 2227 Rocket 3.4 16:28:53 10° N 16:33:05 21° NE 16:35:15 17° E
YAOGAN 3 4.5 16:29:35 10° SSE 16:33:56 81° ENE 16:38:19 10° N
Gbstr 26 Del rocket 4.4 16:27:51 10° NW 16:34:29 77° SW 16:42:18 10° SE
SeaSat 1 3.9 16:35:05 16° ENE 16:36:25 18° NE 16:39:42 10° N
Cosmos 1656 4.1 16:33:11 10° S 16:38:17 40° ESE 16:43:27 10° NE
Hubble Space Telescope 3.4 16:38:32 10° SW 16:40:24 13° SSW 16:42:16 10° S
FALCON 9 DEB 2.9 16:37:18 10° SW 16:40:32 82° NW 16:42:33 21° NE
Meteor 2-16 Rocket 4.4 16:34:29 10° N 16:40:34 67° E 16:46:36 10° SSE
CSL-04 Rocket 4.5 16:37:27 10° SE 16:42:13 30° ENE 16:46:59 10° N
CZ-2D R/B 3.2 16:38:34 10° SSE 16:42:19 59° ENE 16:46:05 10° N
Cosmos 1892 3.9 16:41:35 10° NNE 16:44:14 23° ENE 16:44:14 23° ENE
Cosmos 1302 Rocket 4.0 16:39:58 10° S 16:45:09 66° ESE 16:50:24 10° NNE
OAO 2 Rocket 4.4 16:41:01 10° SW 16:45:19 30° SSE 16:47:42 20° ESE
Cosmos 2058 Rocket 3.0 16:42:02 10° S 16:46:26 66° E 16:50:54 10° NNE
CZ-4 R/B 4.3 16:43:22 10° SSE 16:47:30 75° ENE 16:51:40 10° N
Cosmos 1697 Rocket 3.6 16:45:19 10° SSE 16:49:49 26° ESE 16:51:02 24° E
Centaur AC-119 4.3 16:46:49 10° WSW 16:51:22 18° SSW 16:53:40 10° SSE
Cosmos 1953 Rocket 3.5 16:47:50 10° N 16:52:15 90° W 16:56:42 10° S
Cosmos 1300 3.4 16:49:31 10° SSW 16:53:14 54° W 16:56:59 10° N
COSMOS 2487 4.3 16:50:12 10° NW 16:53:18 32° WSW 16:56:22 10° SSW
FALCON 9 DEB 3.6 16:52:12 10° WSW 16:55:21 52° NW 16:56:48 27° NNE
S3M 4.2 16:50:24 10° SSE 16:56:05 43° E 17:01:49 10° NNE
GEOS 3 Rocket 4.1 16:55:37 25° ESE 16:58:15 43° NE 17:03:18 10° NNW
IRS-P2 Rocket 4.5 16:53:51 10° SSE 16:59:02 81° ENE 17:04:18 10° NNW
Helios 1A Rocket 2.9 16:55:01 10° SSE 16:59:09 88° WSW 17:03:17 10° NNW
Timation 2 Rocket 4.1 16:53:41 10° NNW 17:00:18 68° ENE 17:07:06 10° SSE
DMSP B5D1-3 4.5 17:00:08 10° NNE 17:05:15 63° ESE 17:10:20 10° S
Cosmos 1939 Rocket 4.0 17:03:26 10° S 17:07:16 44° W 17:11:05 10° NNW
CRYOSAT 2 4.5 17:03:07 10° NNE 17:07:49 48° E 17:12:29 10° SSE
Cosmos 1417 Rocket 4.4 17:02:13 10° S 17:08:22 70° E 17:14:38 10° NNE
Cosmos 2297 Rocket 2.3 17:08:22 10° NNW 17:13:55 52° ENE 17:15:53 36° ESE
COSMO-SKYMED 1 4.4 17:11:36 10° N 17:15:27 32° WNW 17:19:18 10° SW
Aureole 3 Rocket 3.6 17:12:39 10° SSW 17:16:01 52° WNW 17:20:24 10° N
H-2A R/B 2.1 17:11:24 10° SSE 17:16:40 60° ENE 17:22:01 10° N
In-Cosmos 22 Rocket 4.0 17:12:25 10° N 17:17:48 82° E 17:23:15 10° S
CSL-04 Debris 4.1 17:13:16 10° SSE 17:18:37 67° ENE 17:24:02 10° N
MOS 1 Rocket 3.2 17:17:11 10° NNE 17:21:52 83° ESE 17:26:49 10° S
Cosmos 2058 4.5 17:20:04 10° N 17:21:44 23° NNE 17:21:44 23° NNE
CZ-4 R/B 2.0 17:21:06 10° S 17:24:57 52° W 17:28:46 10° NNW
Cosmos 1553 Rocket 4.2 17:20:58 10° SSW 17:27:20 74° W 17:33:40 10° N
Cosmos 1992 Rocket 3.9 17:22:57 10° S 17:28:04 63° ESE 17:28:56 54° ENE
YAOGAN 1 3.0 17:24:23 10° S 17:28:39 62° W 17:32:57 10° NNW
Cosmos 1340 3.0 17:25:33 10° NNW 17:29:16 62° W 17:31:02 29° SSW
SJ-11-01 4.1 17:31:08 35° SSE 17:33:05 88° ENE 17:37:46 10° NNW
BREEZE-M DEB (TANK) 4.1 17:32:30 10° SW 17:36:36 83° SE 17:43:21 26° NE
Cosmos 2219 3.1 17:33:33 10° NNW 17:39:20 90° WSW 17:41:21 43° SSE
Okean-O 4.3 17:38:01 10° SSW 17:42:02 34° W 17:46:05 10° NNW
Atlas Centaur 2 3.5 17:39:26 10° SW 17:47:17 41° SSE 17:48:39 39° SE
Delta 2 Rocket 4.3 17:45:29 10° W 17:50:52 55° SSW 17:51:00 55° S
Cosmos 2369 3.8 17:50:40 10° SSW 17:55:30 65° S 17:55:30 65° S
Cosmos 1745 Rocket 4.2 17:51:03 10° NNW 17:57:18 71° W 18:03:35 10° S
OAO 3 Rocket 4.5 17:59:33 10° W 18:02:49 33° SW 18:02:49 33° SW
ARGOS 3.5 18:09:09 61° WSW 18:09:22 62° W 18:14:46 10° NNW
SeaSat 1 3.4 18:14:54 43° NW 18:14:54 43° NW 18:18:22 10° NNW
NOSS 3-3 (A) 4.1 18:08:11 10° SW 18:13:50 63° NW 18:14:04 63° NW
NOSS 3-3 (C) 4.1 18:08:16 10° SW 18:13:58 64° NW 18:14:12 63° NW
USA 215 4.0 18:17:29 39° N 18:17:29 39° N 18:22:22 10° NW
Cosmos 2227 Rocket 2.7 18:11:58 10° NNW 18:17:08 55° W 18:17:08 55° W
ATLAS 2AS CENTAUR R/B 4.3 18:24:07 10° NNW 18:27:53 23° N 18:27:53 23° N
Cosmos 1697 Rocket 3.9 18:28:16 10° SW 18:32:53 39° WNW 18:32:53 39° WNW
H-2A R/B (2) 4.0 18:02:20 10° W 18:41:55 51° SSW 18:42:29 50° S
Milstar 3 4.2 18:48:14 10° WSW 18:51:54 29° SW 18:51:54 29° SW
Cosmos 2297 Rocket 4.4 18:53:30 10° NW 18:57:29 20° W 18:57:46 20° WSW
